Regional Weather Roundup
Issued by NWS Wakefield, VA

Home | Current Version | Previous Version | Graphics & Text | Print | Product List | Glossary On
Versions: 1 2 3 4 5 6 7 8 9 10 11 12 13 14 15 16 17 18 19 20 21 22 23 24 25 26 27
000
ASUS41 KAKQ 260516
RWRAKQ

REGIONAL WEATHER ROUNDUP
NATIONAL WEATHER SERVICE WAKEFIELD VA
100 AM EDT TUE SEP 26 2017

Note: "fair" indicates few or no clouds below 12,000 feet with no
significant weather and/or obstructions to visibility. * = Denotes
station may not report precipitation (e.g., rain,snow,etc.),
thunder or fog.

VAZ042-051-052>054-056-260600-
NORTHERN VIRGINIA

CITY           SKY/WX    TMP DP  RH WIND       PRES   REMARKS
WASH NATIONAL  MOCLDY    75  66  73 NE9       30.01F
DULLES         MOCLDY    72  66  81 E3        30.01F
FORT BELVOIR   PTCLDY    71  65  83 CALM      30.00F
QUANTICO       PTCLDY    76  68  76 NE6       30.01S
FREDERICKSBRG* PTCLDY    72  68  88 N3        29.98F
STAFFORD*      MOCLDY    70  69  94 N3        30.04S
WARRENTON      PTCLDY    66  63  91 CALM      30.00S FOG
CULPEPER*      PTCLDY    68  67  97 CALM      30.02S
MANASSAS*      PTCLDY    72  67  84 CALM      30.01S
LEESBURG*      PTCLDY    72  70  94 CALM      30.03S
WINCHESTER     PTCLDY    64  63  94 CALM      30.02F
FRONT ROYAL*   PTCLDY    66  64  94 CALM      30.01S
LURAY*         PTCLDY    66  64  94 NE3       30.02F
$$

VAZ048-049-060>072-079>083-260600-
CENTRAL AND SOUTH CENTRAL VIRGINIA

CITY           SKY/WX    TMP DP  RH WIND       PRES   REMARKS
RICHMOND       MOCLDY    69  69 100 NE7       29.96F
CHESTERFIELD*  NOT AVBL
PETERSBURG*    MOCLDY    69  69 100 NE5       29.96F
HANOVER        PTCLDY    68  67  96 CALM      29.98F
TAPPAHANNOCK*  PTCLDY   N/A N/A N/A NE5       29.98F
QUINTON*       CLOUDY    69  69 100 NE7       29.95F
CHARLOTTSVILLE MOCLDY    71  68  90 N3        30.00F
GORDONSVILLE*  MOCLDY    67  67 100 CALM      30.00S
ORANGE*        PTCLDY    64  64 100 CALM      30.00F
LOUISA*          N/A     66  64  94 CALM      29.99S
BUMPASS*       FAIR      67  67 100 CALM      29.99S
FARMVILLE*     PTCLDY    70  70 100 N3        29.97F
CREWE*         FAIR      69  69 100 CALM      29.97S
FORT PICKETT*  FAIR      68  68 100 N7        29.96F
CHASE CITY*    FAIR      69  69 100 CALM      29.97S
CLARKSVILLE*   FAIR      70  64  83 CALM      29.96S
SOUTH HILL*    PTCLDY    67  67  99 N5        30.01F
LAWRENCEVILLE* CLOUDY    68  67  95 N3        29.95F
EMPORIA*       CLOUDY    68  68 100 NW7       29.94F
$$

VAZ088>098-260600-
SOUTHEAST VIRGINIA

CITY           SKY/WX    TMP DP  RH WIND       PRES   REMARKS
NORFOLK        CLOUDY    73  71  93 NE15      29.92F
VIRGINIA BEACH CLOUDY    71  69  93 NE14      29.90F
NORFOLK NAVAL  CLOUDY    74  69  85 NE15G21   29.93F
WEST POINT*    CLOUDY    72  68  88 E5        29.97S
SALUDA*        CLOUDY    72  70  94 NE7       29.96F
NEWPORT NEWS   CLOUDY    72  68  87 NE10G18   29.93F
LANGLEY AFB    CLOUDY    72  70  94 NE12      29.93F
FORT EUSTIS    CLOUDY    72  68  86 N7        29.91F
WILLIAMSBURG*  PTCLDY    73  70  88 NE3       29.95F
HR EXEC AP*    CLOUDY    71  70  96 NE8       29.92F
FRANKLIN*      CLOUDY    70  67  90 NE6       29.93S
US460-WAKEFLD  CLOUDY    70  68  93 N5        29.93F
$$

VAZ020-022-025-037-045-260600-
WEST CENTRAL AND SOUTHWEST VIRGINIA

CITY           SKY/WX    TMP DP  RH WIND       PRES   REMARKS
STAUNTON*      CLOUDY    65  63  95 CALM      30.05F
WAYNESBORO*    CLOUDY    72  66  81 NE3       30.05S
HOT SPRINGS VA CLOUDY    66  61  85 E8        30.15F
LYNCHBURG      PTCLDY    71  66  84 N5        30.01F
DANVILLE       PTCLDY    67  65  93 N6        29.98R
SOUTH BOSTON*  FAIR      68  65  92 CALM      29.97S
MARTINSVILLE   PTCLDY    64  63  96 CALM      30.02F
ROANOKE        PTCLDY    67  64  90 CALM      30.05R
BLACKSBURG     PTCLDY    63  62  98 CALM      30.10S
DUBLIN*        PTCLDY    63  61  92 CALM      30.09S
MARION*        CLOUDY    60  57  90 CALM      30.11F FOG
HILLSVILLE*    CLEAR     66  59  78 CALM      30.09S
RICHLANDS*     FAIR      65  58  78 NE3       30.10S
WISE*          CLEAR     64  55  72 CALM      30.10S
ABINGDON*      CLEAR     67  60  79 E3        30.07S
$$

MDZ021>025-VAZ099-100-260600-
SOUTHERN MARYLAND AND THE DELMARVA PENINSULA

CITY           SKY/WX    TMP DP  RH WIND       PRES   REMARKS
PATUXENT RIVER PTCLDY    69  68  96 E8        29.99S
BAY BRIDGE APT PTCLDY    68  66  94 CALM      30.01F
LEONARDTOWN    PTCLDY    68  64  88 CALM      30.01S
DOVER          MOCLDY    67  67 100 E3        30.00R
GEORGETOWN     CLOUDY    69  67  93 E7        30.01R
EASTON         CLOUDY    69  66  90 E5        30.05S
CAMBRIDGE      PTCLDY    68  66  94 NE3       30.00S FOG
SALISBURY      CLOUDY    68  68 100 E6        29.99F
OCEAN CITY     CLOUDY    68  68 100 NE10      29.99F
WALLOPS ISLAND CLOUDY    70  69  97 NE15      29.97F
ACCOMACK*      CLOUDY    70  68  95 NE14      29.95F
$$

NCZ012>017-030>032-260600-
NORTH CENTRAL AND EASTERN NORTH CAROLINA

CITY           SKY/WX    TMP DP  RH WIND       PRES   REMARKS
ROANOKE RAPIDS CLOUDY    70  68  94 N7        29.93F
RALEIGH        MOCLDY    71  67  87 NE6       29.94S
ELIZABETH CITY CLOUDY    72  72 100 N13       29.88F
AHOSKIE*       CLOUDY    70  68  94 N7        29.91F
EDENTON*       CLOUDY    72  70  94 N9G16     29.88F
CURRITUCK*     CLOUDY    72  70  96 NE13G18   29.89F
KILL DEVIL HLS CLOUDY    71  71 100 N10G21    29.83F FOG
MANTEO         CLOUDY    72  72  99 NE15G24   29.84F FOG
CAPE HATTERAS  CLOUDY    76  76 100 NE13G22   29.76F
TARBORO*       NOT AVBL
GOLDSBORO      CLOUDY    72  72 100 N9        29.87S
WASHINGTON     CLOUDY    71  69  92 N10       29.87F
GREENVILLE     CLOUDY    70  68  94 N8        29.91S
NEW BERN       CLOUDY    73  71  93 N9        29.85F
WILMINGTON     CLOUDY    75  70  84 N12       29.82F
$$

VAZ048-260600-
ELSEWHERE

CITY           SKY/WX    TMP DP  RH WIND       PRES   REMARKS
HARRISBURG PA  PTCLDY    74  70  87 S5        30.02S
BALTIMORE      MOCLDY    70  66  87 CALM      30.02F
ANNAPOLIS      CLEAR     73  68  84 CALM      30.01S
ANDREWS AFB    PTCLDY    68  63  83 NE5       30.01S
PHILADELPHIA   CLOUDY    70  64  81 CALM      30.04R
HENDERSON NC   PTCLDY    67  64  89 NE5       29.96S
GREENSBORO     MOCLDY    71  65  81 NE7       29.97F
ROCKY MOUNT    CLOUDY    70  68  93 N10       29.91F
$$

VAZ100-260600-
MARINE

STATION/POSITION TIME  TEMP    WIND        PRES    WAVE   SWELL
                       AIR SEA DIR/SP/G            HT/PER HT/PER
                 (UTC) (F)     (DEG/KT/KT) (MB)    (FT/S) (FT/S)
BRANDYWINE LGT   0442   69     110/  8/ 10 1016.6S
CAPE MAY NJ      0448   67 75   70/  3/  6 1015.6F
LEWES DE         0442   68 74  110/  7/ 10 1015.8R
15NM E FENWICK I 0450   68 71   50/ 12/ 14 1015.8F   4/14   3/14
OCEAN-CITY-INLET 0442   68 74   90/  7/ 10 1016.1F
WACHAPREAGUE VA  0442   71 76   50/ 17/ 20 1014.3F
THOMAS POINT MD  0500   70 77   60/  7/  8   N/A
GOOSES REEF MD   0500   71 76   60/ 10/ 12 1016.3    0
COVE POINT MD    0442   69      60/  7/  8 1016.2F
SOLOMONS ISLAND  0442   71 78   30/  3/  5 1015.3R
BISHOPS HEAD MD  0442   70 78   50/  9/ 12 1015.6S
PINEY POINT MD   0442           70/  6/  9   N/A
POTOMAC MD       0500   72 77   80/ 12/ 14 1014.4    1/ 2
CAMBRIDGE MD     0442   70 79              1016.6S
LEWISETTA VA     0442   72 78   90/ 12/ 13 1015.0F
RAPPAHANNOCK LGT 0442           40/ 15/ 17 1014.8F
STINGRAY PT      0500   72 77   80/ 14/ 17 1014.6    2/ 3
YORK RVR RNG VA  0442   72      50/ 15/ 17 1014.5F
YORKTOWN VA      0442   72 78   40/ 11/ 13 1013.7F
JAMESTOWN VA     0500      79   70/  8/ 12   N/A     0
DOMINION TERM VA 0442   72      50/  5/ 10 1013.6F
KIPTOPEKE VA     0442      76   50/  8/ 14   N/A
CHES BAY BRIDGE  0442   72 76   50/ 20/ 22 1012.7F
CAPE HENRY VA    0442   72      40/ 21/ 25   N/A
WILLOUBY STN VA  0442   72      40/ 17/ 19 1013.4F
S CRANEY ISL VA  0442   72      40/ 15/ 17 1013.1F
CAPE HENRY BUOY  0500      74                N/A     7/15   3/15
1ST LANDING BUOY 0500   72 75              1012.8    4/ 4
64NM E OF VA BCH 0450   72 70   40/ 17/ 21 1011.4F  17/13  16/13
DUCK PIER NC     0442   72 76   30/ 24/ 27 1010.6F
44100 DUCK FRF   0435      74                N/A     9/14   7/14
44056 DUCK FRF   0500      76                N/A    10/15   8/15
OREGON INLET NC  0442   74 75   30/ 19/ 27 1009.2F
HATTERAS NC      0442   76 77   40/ 17/ 23 1007.8F
DIAMOND SHLS NC  0450   77 77   20/ 23/ 29 1005.8F  16/13  15/13
CAPE LOOKOUT NC  0500   75     360/ 19/ 23 1007.6F
$$




USA.gov is the U.S. government's official web portal to all federal, state and local government web resources and services.